{"data":{"norad_id":54700,"intl_designator":"2022-169B","name":"SHIYAN-20B (SY-20B)","alt_names":[],"object_type":"PAYLOAD","status":"ACTIVE","operator":null,"country":"PRC","launch_date":"2022-12-12","launch_site_code":"JSC","launch_vehicle":null,"mission":null,"orbit_class":"UNKNOWN","rcs_meters":null,"size_class":null,"mass_kg":null,"dimensions":null,"purposes":[],"wikipedia_slug":null,"has_3d_model":false,"image_url":null,"decayed_at":null,"tle_current":{"epoch":"2026-09-21T23:10:41.396160Z","epoch_age_seconds":35683,"freshness":"FRESH","line1":"1 54700U 22169B   26264.96575690 -.00000031  00000+0  41287-4 0  9993","line2":"2 54700  59.9955 280.6642 0012122 346.4556  13.6152 14.29565712197196","mean_motion":14.29565712,"eccentricity":0.0012122,"inclination_deg":59.9955,"raan_deg":280.6642,"arg_perigee_deg":346.4556,"mean_anomaly_deg":13.6152,"bstar":4.1287e-5,"rev_number":19719,"period_min":100.72989215623,"perigee_km":784.48976885706,"apogee_km":801.87591668387,"semimajor_km":7171.3198427705,"source":"CELESTRAK","updated_at":"2026-09-22T09:00:25.187822Z"}}}